Home   Weather   Fairfield   Past weeks
Flag for USA

Past Weather in Fairfield, Illinois, USA — Yesterday and Last 2 Weeks

Now
39 °F

Low clouds.


Feels Like: 36 °F
Forecast: 44 / 31 °F
Wind: 5 mph from West

Location: Mount Carmel Municipal Airport

Current Time: Dec 14, 2019 at 10:41:37 am

Latest Report: Dec 14, 2019 at 9:55 am


Visibility: 7 mi

Pressure: 29.77 "Hg

Humidity: 89%

Dew Point: 36 °F

Location of FairfieldLocation

Past Weather in Fairfield — Graph

°F

Fairfield Temperature Yesterday

Maximum temperature yesterday: 45 °F (at 12:35 pm)
Minimum temperature yesterday: 30 °F (at 2:15 am)
Average temperature yesterday: 38 °F

High & Low Weather Summary for the Past Weeks

 TemperatureHumidityPressure
High57 °F (Dec 5, 2:15 pm)99% (Dec 14, 4:55 am)30.50 "Hg (Dec 14, 4:55 am)
Low20 °F (Dec 10, 11:15 pm)43% (Dec 5, 1:55 pm)29.41 "Hg (Dec 1, 3:35 am)
Average39 °F78%30.03 "Hg
* Reported Nov 29 9:15 am — Dec 14 9:15 am, Fairfield. Weather by CustomWeather, © 2019

Note: Actual official high and low records may vary slightly from our data, if they occured in-between our weather recording intervals... More about our weather records

Fairfield Weather History for the Previous 24 Hours

Scroll right to see more
 ConditionsComfort  
Time TempWeatherWind HumidityBarometerVisibility
9:15 am
Sat, Dec 14
39 °FLow clouds.6 mph89%29.76 "Hg10 mi
8:55 am39 °FOvercast.6 mph90%29.75 "Hg10 mi
8:35 am38 °FOvercast.3 mph93%29.74 "Hg10 mi
8:15 am38 °FOvercast.6 mph97%29.75 "Hg10 mi
7:55 am38 °FFog.8 mph97%29.74 "Hg5 mi
7:35 am37 °FFog.3 mph97%29.74 "Hg3 mi
7:15 am36 °FFog.5 mph97%29.74 "Hg2 mi
6:55 am35 °FFog.3 mph98%29.73 "Hg2 mi
6:35 am35 °FFog.No wind97%29.73 "Hg2 mi
6:15 am35 °FFog.No wind97%29.73 "Hg2 mi
5:55 am35 °FFog.No wind97%29.73 "Hg3 mi
5:35 am34 °FFog.3 mph98%29.73 "Hg2 mi
5:15 am33 °FFog.5 mph98%29.73 "Hg2 mi
4:55 am32 °FFog.6 mph99%29.73 "Hg0 mi
4:35 am34 °FFog.3 mph97%29.71 "Hg0 mi
4:15 am35 °FFog.No wind97%29.72 "Hg2 mi
3:55 am36 °FFog.No wind97%29.73 "Hg4 mi
3:35 am36 °FFog.No wind98%29.74 "Hg5 mi
3:15 am36 °FFog.No wind97%29.75 "Hg4 mi
2:55 am35 °FFog.No wind97%29.75 "Hg2 mi
2:35 am35 °FFog.5 mph97%29.75 "Hg1 mi
2:15 am33 °FFog.No wind97%29.75 "Hg1 mi
1:50 am36 °FFog.No wind97%29.74 "Hg1 mi
1:35 am35 °FFog.No wind97%29.75 "Hg1 mi
1:15 am35 °FFog.No wind97%29.75 "Hg1 mi
12:55 am35 °FFog.3 mph95%29.76 "Hg1 mi
12:35 am37 °FFog.3 mph96%29.76 "Hg4 mi
12:15 am38 °FFog.No wind96%29.77 "Hg5 mi
11:55 pm
Fri, Dec 13
38 °FMostly cloudy.No wind95%29.78 "Hg7 mi
11:35 pm38 °FMostly cloudy.No wind94%29.78 "Hg7 mi
11:15 pm38 °FMostly cloudy.3 mph95%29.78 "Hg7 mi
10:55 pm38 °FOvercast.No wind94%29.79 "Hg7 mi
10:35 pm39 °FMostly cloudy.No wind93%29.79 "Hg10 mi
10:15 pm39 °FOvercast.5 mph94%29.80 "Hg10 mi
9:55 pm39 °FDrizzle. Mostly cloudy.No wind93%29.80 "Hg10 mi
9:35 pm39 °FMostly cloudy.No wind93%29.80 "Hg10 mi
9:15 pm39 °FDrizzle. Mostly cloudy.No wind92%29.81 "Hg10 mi
8:55 pm39 °FMostly cloudy.No wind93%29.81 "Hg10 mi
8:35 pm39 °FDrizzle. Mostly cloudy.No wind91%29.81 "Hg10 mi
8:15 pm40 °FOvercast.No wind90%29.82 "Hg10 mi
7:55 pm40 °FMostly cloudy.No wind88%29.83 "Hg10 mi
7:35 pm40 °FMostly cloudy.No wind89%29.84 "Hg10 mi
6:55 pm42 °FMostly cloudy.No wind83%29.84 "Hg10 mi
6:15 pm40 °FMostly cloudy.5 mph88%29.84 "Hg10 mi
5:55 pm42 °FMostly cloudy.No wind83%29.85 "Hg10 mi
5:35 pm43 °FMostly cloudy.No wind82%29.85 "Hg10 mi
4:55 pm41 °FMostly cloudy.3 mph86%29.86 "Hg10 mi
4:35 pm42 °FMostly cloudy.5 mph83%29.86 "Hg10 mi
4:15 pm43 °FOvercast.3 mph82%29.87 "Hg10 mi
3:55 pm44 °FOvercast.3 mph80%29.87 "Hg10 mi
3:15 pm44 °FCloudy.6 mph77%29.87 "Hg10 mi
2:55 pm44 °FMostly cloudy.3 mph77%29.87 "Hg10 mi
2:35 pm44 °FOvercast.7 mph76%29.87 "Hg10 mi
2:15 pm44 °FOvercast.7 mph74%29.87 "Hg10 mi
1:55 pm45 °FOvercast.7 mph72%29.88 "Hg10 mi
1:35 pm45 °FOvercast.9 mph72%29.89 "Hg10 mi
12:55 pm45 °FOvercast.6 mph75%29.91 "Hg10 mi
12:35 pm45 °FOvercast.6 mph75%29.92 "Hg10 mi
11:55 am44 °FMostly cloudy.6 mph75%29.96 "Hg10 mi
11:35 am44 °FOvercast.5 mph73%29.97 "Hg10 mi
10:55 am42 °FOvercast.5 mph77%29.99 "Hg10 mi
10:35 am42 °FOvercast.5 mph75%30.00 "Hg10 mi
10:15 am42 °FMostly cloudy.3 mph77%30.01 "Hg10 mi
Weather by CustomWeather, © 2019

See weather overview

Advertising